GFSSE_850_thetae_060.txt.gz
Theta_e
338 325 323 321 323 330 339 344 344 343 343 341 337 335 331 326 329 334 334 332 328 325 320 318 316 314 313 313 313 313 313 313 313 312 312 315 321 327 330 336 342 343 330
336 325 322 320 320 326 335 342 343 344 344 340 338 334 329 322 323 330 328 323 319 316 315 315 315 315 315 316 316 316 317 316 316 332 337 323 316 318 324 335 342 339 331
337 325 322 320 319 324 331 337 341 344 340 336 334 329 323 318 319 321 318 316 316 316 316 316 317 317 317 318 319 320 321 321 334 337 342 338 334 314 320 327 330 331 332
342 324 322 320 319 321 327 334 339 342 337 332 329 322 319 317 317 317 316 317 317 318 318 318 318 318 318 319 321 322 323 327 334 336 337 341 337 327 314 321 333 335 336
344 327 322 320 319 320 325 333 337 338 333 330 323 319 318 318 318 318 318 319 319 319 320 320 320 320 320 320 320 322 323 330 335 337 338 337 338 337 325 318 317 329 332
345 337 322 320 319 320 322 330 336 333 328 327 322 319 319 319 320 319 319 319 320 320 320 320 320 320 320 320 320 321 323 333 338 339 339 332 338 338 328 327 324 316 322
348 343 323 320 319 320 321 325 335 334 329 325 321 320 319 320 320 320 320 320 320 320 320 320 320 320 320 320 320 320 321 329 339 340 340 340 341 335 330 329 328 326 324
345 348 327 320 320 320 321 323 329 335 333 328 323 320 320 320 320 320 320 319 320 319 319 319 319 320 320 320 320 320 321 321 336 340 339 341 340 340 328 331 331 330 327
343 348 340 320 320 320 321 322 323 332 333 332 327 321 320 320 319 319 319 319 319 319 319 319 319 319 319 319 320 320 320 320 321 337 339 338 339 339 333 328 331 332 331
342 347 345 325 320 320 321 322 323 324 330 331 328 322 321 320 319 319 319 319 319 319 319 318 318 319 319 319 319 319 319 320 320 325 338 337 334 335 331 325 330 332 332
343 345 345 336 320 324 321 321 322 323 324 326 326 323 321 320 319 319 319 319 319 319 318 318 318 318 318 318 318 318 319 320 320 325 334 335 335 335 332 325 326 331 332
344 343 347 345 321 324 336 321 321 321 322 323 325 322 321 320 320 319 319 319 319 319 318 318 318 318 318 318 318 324 329 332 332 327 332 334 334 333 333 327 327 329 332
344 342 345 346 332 328 341 326 321 320 321 321 322 321 321 320 321 326 326 325 321 319 319 319 319 319 319 319 318 328 331 334 335 334 334 334 333 333 333 330 327 330 331
337 343 344 344 342 339 341 340 326 321 320 320 320 320 320 320 322 337 337 334 336 331 325 321 322 324 329 329 324 324 333 335 334 333 333 333 333 333 332 331 325 330 331
335 343 347 345 344 339 341 342 339 327 321 320 320 320 320 321 323 330 343 340 341 340 334 334 336 333 334 331 329 330 333 333 333 333 333 332 332 332 332 331 326 327 331
328 341 342 344 344 343 340 347 344 341 336 330 327 323 322 322 326 335 337 338 336 341 340 339 338 337 336 335 330 333 334 334 333 333 334 333 333 334 334 332 330 324 331
327 330 340 342 343 342 341 343 349 346 340 340 338 340 335 334 327 338 335 331 326 329 331 332 337 338 337 335 331 333 334 334 335 336 336 334 333 334 336 334 333 328 324
328 324 327 340 344 341 339 340 347 345 344 345 341 343 343 341 341 339 337 329 323 325 329 335 333 331 334 332 335 335 335 336 339 340 339 339 338 337 336 336 335 333 330
326 326 321 332 341 342 340 339 335 345 346 343 345 343 344 343 340 337 329 326 331 332 329 329 332 336 335 336 338 337 336 337 341 341 341 341 340 340 340 337 338 336 333
324 325 324 336 341 341 340 340 336 336 344 344 343 344 343 343 339 336 328 327 331 327 325 323 325 332 336 335 338 342 341 342 341 342 341 342 342 342 341 341 339 338 336
321 321 317 324 340 342 342 340 336 336 336 335 336 333 341 340 335 333 325 329 325 327 326 322 324 329 335 336 338 340 338 337 341 341 343 342 342 341 341 342 342 337 336
323 324 325 316 317 326 336 340 336 333 338 336 339 337 330 334 337 337 333 329 326 325 323 324 328 330 334 335 339 345 345 337 340 339 342 344 344 342 343 342 340 339 338
320 325 326 327 320 319 326 334 337 340 338 335 335 338 335 333 332 327 327 324 327 327 325 326 327 330 331 335 343 344 343 337 335 336 343 346 345 344 343 341 342 341 339
320 322 320 325 324 318 318 331 332 335 337 332 334 339 345 341 337 336 333 332 336 333 328 326 333 332 331 338 346 346 345 343 340 341 347 346 344 342 340 339 339 336 338
318 320 320 317 314 317 325 319 323 331 334 335 334 333 342 345 346 344 344 343 343 341 339 329 338 333 335 342 345 349 346 346 342 344 344 343 343 343 341 340 338 337 339
318 319 318 321 320 315 321 315 316 317 327 333 333 331 334 335 339 341 339 344 341 334 334 334 344 340 344 347 346 345 347 342 343 345 345 342 342 342 341 340 338 338 339

GFSSE_850_thetae_063.txt.gz
Theta_e
328 322 322 322 325 336 343 342 341 341 339 333 330 330 326 335 334 334 333 330 325 321 319 318 316 314 313 313 313 314 315 314 316 318 316 316 316 322 327 330 340 335 329
327 322 322 322 322 332 341 343 342 342 338 332 330 327 323 332 332 331 324 320 317 316 316 316 316 316 315 316 317 319 319 325 335 336 335 336 318 316 322 332 339 334 330
325 322 323 322 322 328 338 341 342 342 336 331 327 324 320 325 327 322 317 317 317 317 318 319 319 318 319 320 321 322 325 331 334 337 340 338 333 333 316 325 329 330 331
333 322 323 323 322 325 332 339 342 339 333 328 323 320 318 320 320 317 317 318 319 319 319 320 320 320 320 321 322 323 326 332 335 336 338 342 336 337 323 317 328 333 334
341 324 322 324 322 322 328 336 341 336 329 325 321 318 317 318 318 318 319 320 320 320 320 320 321 321 321 321 322 323 326 332 335 337 338 338 337 338 328 324 318 324 328
343 328 321 324 323 321 323 326 337 332 327 324 320 318 318 319 319 319 320 321 320 320 320 321 321 321 321 320 321 322 326 335 337 338 339 333 335 335 329 328 326 322 317
344 340 320 321 322 322 323 323 327 331 327 323 321 319 319 319 320 320 320 320 320 321 320 320 320 320 320 320 320 320 322 332 338 339 341 339 341 338 339 329 330 328 324
342 343 321 321 321 323 323 323 323 330 328 325 321 320 320 320 320 320 320 320 320 320 320 320 320 320 320 320 320 320 320 321 335 339 339 340 341 338 338 331 329 330 329
346 342 325 320 320 322 324 323 323 323 329 327 324 320 320 320 320 320 320 320 320 320 320 320 319 320 319 319 320 320 320 320 321 322 337 338 339 338 339 336 326 330 331
346 344 337 320 320 321 325 325 323 323 323 328 325 321 320 320 320 320 319 319 320 319 319 319 319 319 319 319 319 319 319 319 319 320 329 338 337 336 335 333 329 326 331
347 347 343 321 320 321 323 325 325 324 323 323 325 322 320 320 320 319 319 319 319 319 319 319 319 319 318 318 318 318 318 326 332 332 322 334 335 336 335 333 332 326 329
351 348 344 331 320 322 323 324 326 324 323 323 323 322 320 320 320 319 319 319 319 319 319 319 319 319 319 318 318 318 319 329 333 334 329 332 333 335 333 333 332 330 326
343 348 348 343 330 321 322 323 325 325 323 323 322 321 321 320 320 320 319 319 319 320 319 319 319 319 319 321 323 321 321 329 332 336 333 334 334 334 333 333 333 332 326
332 342 349 345 342 321 321 323 323 325 323 322 322 321 321 320 320 320 320 320 321 324 327 330 323 325 324 327 330 329 325 326 330 333 333 334 333 333 333 332 332 331 326
326 339 345 347 342 335 321 329 330 324 322 322 321 321 321 321 320 320 321 323 325 326 330 332 329 334 333 331 331 330 331 331 332 332 332 332 333 333 332 332 334 333 329
326 332 343 346 344 332 324 332 341 340 329 321 320 321 321 320 320 320 321 322 324 325 325 328 334 337 337 336 335 334 332 333 334 334 334 334 333 333 333 334 335 334 331
325 337 341 346 345 343 338 346 343 342 342 334 321 320 320 320 320 321 322 324 326 329 330 335 338 338 337 337 335 334 332 333 334 334 335 337 338 336 334 333 335 335 333
325 325 343 346 345 343 340 343 346 347 343 340 338 333 329 329 332 326 326 326 331 333 331 338 337 337 337 335 333 334 333 336 335 336 336 337 338 339 339 338 337 336 335
326 326 326 341 346 344 342 341 341 346 345 345 342 341 341 341 341 340 337 331 333 331 331 333 329 332 328 328 333 334 336 338 338 339 338 339 340 341 340 340 340 338 337
324 325 322 325 340 346 342 341 338 341 346 343 346 342 344 344 345 343 342 340 336 330 329 327 332 335 327 324 329 333 335 336 340 341 338 341 341 341 341 341 341 340 339
323 322 322 321 338 345 344 341 337 338 341 343 343 344 340 344 344 343 341 339 336 329 328 327 326 329 326 324 329 333 335 335 338 338 335 341 342 342 343 341 342 342 339
321 321 321 317 331 344 345 342 341 334 334 333 332 333 342 343 342 342 341 337 334 331 327 326 326 326 327 326 333 338 342 336 339 338 339 342 341 343 343 340 343 343 340
319 319 318 317 316 330 344 342 339 338 335 336 336 337 332 334 333 334 335 337 333 334 334 330 328 326 326 326 335 339 341 342 340 336 335 336 341 344 343 341 343 342 340
318 319 318 321 323 320 322 339 344 339 332 330 333 335 337 334 333 337 337 337 333 334 337 334 335 331 328 329 335 331 337 340 345 344 342 341 345 344 343 342 342 341 340
319 319 321 321 319 317 324 324 336 341 341 341 337 337 337 339 332 336 340 338 341 339 340 338 338 338 334 333 332 330 336 341 345 347 345 340 344 343 340 342 340 339 337
319 320 319 318 317 317 315 322 328 327 333 340 338 336 338 337 336 337 340 336 337 336 337 340 335 334 334 332 331 330 331 330 343 347 344 340 343 341 341 342 341 339 338

GFSSE_850_thetae_069.txt.gz
Theta_e
330 328 338 340 340 340 338 336 334 332 335 341 343 344 343 339 336 335 334 328 323 321 320 317 315 315 315 315 314 313 317 318 328 326 328 324 320 320 325 329 329 329 328
326 327 339 341 341 340 339 337 334 330 332 333 336 339 337 334 333 330 325 320 319 317 316 317 317 317 318 318 318 322 333 332 334 334 332 331 329 321 321 326 327 327 328
325 325 334 341 341 340 339 338 333 330 333 334 333 333 333 333 330 323 319 318 317 318 319 319 321 320 321 321 328 332 333 334 335 335 336 335 335 332 325 321 325 330 331
323 325 332 340 342 340 339 338 331 328 327 329 330 332 332 329 322 319 318 318 319 320 321 321 321 322 322 323 326 330 332 333 334 333 333 333 334 334 329 327 322 323 324
323 324 332 338 342 340 338 337 328 324 323 322 324 331 328 322 319 318 319 320 321 322 322 322 322 322 322 323 324 328 331 334 334 334 333 336 338 338 338 334 328 325 320
323 323 329 335 341 340 339 335 326 321 320 319 325 325 323 319 318 319 320 321 322 322 321 321 321 321 321 321 322 323 328 332 335 335 334 336 336 338 339 338 334 328 327
322 323 326 330 336 339 338 333 325 321 320 319 321 321 319 318 319 320 321 321 321 321 321 321 320 320 320 320 320 321 322 327 332 336 337 336 337 337 338 339 338 328 327
324 323 325 330 332 335 337 331 324 321 319 319 320 320 319 320 321 320 321 321 321 321 320 320 320 320 320 320 320 320 320 320 321 333 334 336 336 337 337 338 338 333 327
330 323 325 330 333 333 336 332 325 321 319 319 319 319 320 321 321 321 321 321 321 321 320 320 320 320 320 319 319 319 319 319 319 319 322 321 336 337 336 336 337 337 330
333 326 322 326 331 333 334 332 329 324 320 320 321 320 320 321 322 321 321 321 321 321 320 320 320 319 319 319 319 318 318 318 318 327 332 326 327 334 334 334 335 337 333
335 328 323 325 329 330 333 332 329 326 322 320 321 322 321 321 322 321 321 321 321 321 320 320 319 319 319 318 318 318 318 318 322 330 333 329 322 327 333 332 333 336 334
343 335 326 322 326 331 334 333 330 327 324 321 321 321 322 322 322 321 321 321 321 321 320 320 319 319 319 318 319 321 325 322 320 327 331 332 331 331 333 333 334 334 333
345 344 331 323 324 326 331 333 332 329 326 323 321 321 322 322 321 321 321 321 321 321 320 320 319 321 322 322 323 328 329 329 328 327 329 331 332 333 333 332 332 333 333
342 347 341 326 322 325 328 331 332 330 327 324 323 321 321 322 322 322 322 321 321 321 320 320 327 328 331 333 331 331 331 331 331 332 332 333 333 334 333 333 332 332 332
337 344 346 334 324 323 326 329 330 330 329 326 324 322 321 322 322 322 322 321 321 321 320 323 330 331 333 335 335 333 333 333 333 333 333 334 334 335 336 335 334 333 333
330 334 347 346 341 327 322 324 326 327 327 326 325 323 322 321 321 321 321 321 321 321 322 324 330 332 332 333 334 333 333 334 333 334 334 334 335 335 337 338 337 336 334
325 325 332 338 337 345 341 324 322 324 327 328 326 324 323 322 322 321 321 321 321 321 323 326 328 330 333 334 331 331 332 333 331 331 333 334 335 335 338 339 339 339 339
323 325 325 325 329 343 345 335 324 322 323 325 326 325 323 323 323 322 321 321 320 320 321 324 328 329 330 332 331 330 332 329 326 329 333 334 335 337 338 339 340 340 339
322 323 325 325 329 340 347 339 328 326 326 328 328 326 324 323 323 322 322 321 320 320 321 325 331 334 333 330 332 332 330 328 326 332 336 333 337 338 338 339 337 340 340
321 323 325 325 327 342 346 342 332 332 334 327 333 334 329 324 322 321 321 321 324 324 326 328 335 337 336 334 332 331 330 325 326 332 331 331 334 335 337 338 337 337 339
321 323 326 325 325 338 345 343 336 335 343 341 329 328 340 334 328 328 323 327 336 338 339 341 341 339 335 333 333 327 328 326 330 331 332 331 331 332 334 337 336 338 338
321 324 326 329 329 326 343 344 341 340 344 346 342 334 333 339 339 338 339 333 340 340 338 340 339 337 334 332 334 334 331 329 333 334 332 331 330 331 331 332 334 337 339
323 324 327 330 342 344 345 345 344 344 343 343 344 342 343 342 340 341 340 338 340 343 342 339 339 337 332 334 335 335 332 335 334 335 333 331 331 330 330 333 336 338 340
320 323 325 326 326 329 335 345 345 343 341 343 341 339 340 343 342 343 341 337 330 332 335 332 334 333 333 333 335 335 333 332 338 339 332 332 331 330 330 332 337 341 338
322 323 324 324 322 321 320 319 329 338 341 340 340 341 341 340 341 341 338 337 335 331 330 330 330 336 335 335 335 338 335 336 339 341 333 331 331 333 333 331 334 339 338
323 323 322 321 320 320 319 317 317 316 327 339 339 340 340 338 337 340 339 338 338 335 334 333 330 330 330 337 337 338 336 337 337 334 331 332 332 332 334 335 336 333 335

GFSSE_850_thetae_072.txt.gz
Theta_e
330 332 342 345 342 339 337 337 337 340 343 346 347 346 345 341 334 329 328 325 323 323 323 320 318 316 315 314 314 316 324 326 328 330 330 326 320 321 324 325 324 326 327
328 331 341 342 339 338 337 335 334 338 343 345 345 345 343 336 331 328 325 321 320 318 317 316 317 318 318 318 323 327 330 332 332 331 332 332 327 324 322 323 327 329 329
327 330 340 340 338 337 336 335 332 335 342 343 343 342 338 333 329 326 321 319 318 317 318 319 320 321 321 324 329 331 332 332 332 331 331 332 331 328 327 324 322 322 324
326 331 340 340 339 337 336 335 331 331 333 336 337 336 333 331 325 321 318 318 319 320 320 322 322 323 323 326 328 329 330 331 330 330 333 336 337 336 334 328 327 325 321
327 331 340 340 339 338 337 336 330 330 333 333 333 332 331 327 321 319 319 320 320 320 321 321 322 323 323 325 327 329 329 330 331 333 335 337 338 338 337 335 330 327 327
326 328 339 341 340 338 338 337 329 327 328 332 332 331 328 322 319 319 320 321 321 321 321 321 321 321 322 323 325 326 329 332 333 335 334 336 337 338 338 338 336 329 327
324 329 338 341 340 339 339 337 327 324 323 321 326 327 324 320 319 320 321 322 321 321 320 320 320 319 320 320 321 323 326 329 333 336 335 331 335 337 337 337 337 336 329
323 325 335 341 341 339 338 337 327 322 319 320 325 323 320 319 320 321 322 321 321 321 320 320 320 320 320 319 319 320 320 320 322 322 334 328 326 335 335 336 337 337 334
324 325 332 339 341 339 337 334 327 322 319 321 322 321 319 320 322 322 322 321 321 320 320 320 320 320 319 319 319 319 319 319 319 319 321 324 323 334 336 334 335 336 337
325 325 330 335 340 339 338 333 326 323 320 320 321 320 320 321 322 322 322 321 321 320 320 320 319 319 319 318 318 318 318 317 318 324 332 332 328 322 325 333 332 333 336
329 326 326 330 337 338 337 336 329 324 321 319 320 320 321 321 322 322 321 321 320 320 320 319 319 319 318 318 318 318 319 319 318 323 330 333 331 325 330 331 333 333 334
338 332 326 327 330 336 336 334 330 327 323 320 319 320 321 322 322 322 321 320 320 320 319 319 319 319 319 319 319 321 329 328 325 324 328 331 333 333 333 333 332 332 333
339 335 333 325 328 332 334 334 331 327 324 322 320 320 321 322 322 322 321 321 320 320 319 319 319 319 324 323 326 327 330 330 330 331 332 332 332 332 333 333 333 332 332
341 341 336 331 324 328 333 332 330 330 327 323 321 320 321 321 322 322 321 320 320 320 320 319 320 330 330 333 333 334 333 333 333 333 333 333 333 334 335 336 335 334 333
340 344 343 335 327 324 329 332 331 327 327 326 322 321 321 321 322 321 321 321 320 320 320 320 325 332 334 335 335 335 334 333 333 333 333 334 335 335 335 337 338 337 336
332 337 343 344 333 326 324 327 329 330 328 327 324 322 322 321 321 322 321 321 320 320 320 320 324 330 333 334 334 334 334 332 330 329 331 333 334 336 336 337 338 339 338
327 330 335 344 343 331 325 323 325 327 328 327 325 324 323 322 321 321 321 321 320 320 320 325 329 330 329 332 333 333 331 329 326 326 331 333 336 336 337 337 338 339 339
326 326 327 339 344 342 337 331 326 326 330 328 328 326 326 325 324 322 322 321 321 320 320 322 328 331 331 329 330 330 331 329 327 326 331 330 335 336 337 336 336 337 338
324 324 324 325 329 333 334 335 335 328 326 326 329 329 327 327 326 325 325 323 323 321 320 321 324 328 331 333 332 329 329 328 327 325 331 332 332 332 334 335 338 336 333
323 323 323 323 324 328 339 341 340 334 330 327 327 329 329 328 327 326 325 327 324 322 321 320 324 327 338 337 334 330 328 327 325 326 331 331 330 330 331 333 337 335 332
321 322 323 323 323 326 332 340 345 344 338 330 328 328 330 327 325 324 324 323 326 322 321 324 334 338 339 333 332 329 327 328 326 328 333 331 331 331 330 331 333 335 332
319 321 321 321 324 325 326 336 344 344 339 333 328 328 328 332 337 336 332 324 322 323 329 334 329 338 340 337 334 334 331 330 331 332 332 333 331 331 331 332 331 336 335
318 318 320 320 324 326 325 336 344 342 339 336 338 338 335 331 329 332 339 335 331 330 334 340 337 336 338 334 337 337 337 332 331 331 333 332 332 331 331 331 332 337 336
318 319 319 321 325 327 326 334 342 342 341 340 340 338 337 338 339 339 335 336 339 340 341 342 340 333 332 332 333 333 336 337 337 334 332 332 333 333 332 331 331 333 331
320 320 322 325 328 331 334 337 342 343 341 341 340 341 340 340 340 338 339 342 340 339 335 339 339 332 330 330 330 329 329 331 338 336 335 334 335 333 333 333 332 333 336
316 322 325 328 330 334 335 335 332 334 336 334 335 336 338 340 338 339 338 340 340 339 335 331 334 335 331 330 329 330 329 331 337 334 334 334 334 331 332 332 331 332 334

GFSSE_850_thetae_075.txt.gz
Theta_e
333 330 334 344 347 346 345 344 344 343 345 346 345 343 343 337 330 327 324 324 326 330 327 323 320 318 316 315 317 323 326 329 329 328 325 323 322 323 324 325 325 327 327
329 328 335 344 346 345 345 344 343 343 345 347 346 345 344 335 328 324 322 322 322 321 319 317 317 318 317 321 322 330 331 330 331 330 329 327 326 325 323 323 323 324 326
328 328 338 344 344 341 340 339 340 341 345 346 346 344 342 331 324 322 320 320 319 318 317 318 320 320 321 329 330 332 332 331 330 331 333 334 333 329 327 326 324 322 323
328 327 338 343 341 339 337 336 337 340 345 346 344 342 337 327 322 320 319 319 318 319 320 321 321 322 325 329 331 331 331 330 331 333 336 336 335 335 333 328 327 324 323
328 328 337 340 338 337 336 335 334 339 343 344 343 339 333 324 321 319 319 319 319 320 321 322 322 323 327 329 329 330 332 333 333 334 334 336 337 337 337 336 330 327 326
327 327 336 339 338 337 335 334 332 331 336 340 338 334 330 323 320 320 320 320 320 320 321 322 322 322 324 326 328 330 331 332 332 333 333 335 337 337 337 337 337 332 328
326 327 336 339 338 337 336 335 333 328 330 333 333 331 327 321 320 320 321 321 321 321 321 320 320 321 321 322 324 326 328 329 330 332 334 326 333 336 336 336 337 337 333
327 328 334 339 339 337 337 337 333 327 330 332 332 330 325 320 320 321 322 322 321 321 320 320 319 319 319 319 319 320 320 320 320 320 323 325 321 333 335 335 335 336 337
327 329 335 339 339 337 337 338 335 327 326 327 328 328 323 320 320 321 322 321 320 320 320 320 320 320 319 319 319 319 319 318 318 318 325 331 327 328 333 334 332 333 334
325 327 332 338 340 339 337 338 336 327 325 323 325 326 322 320 320 321 321 320 320 320 320 319 319 319 319 318 318 318 317 317 317 320 329 332 329 323 326 333 332 333 333
326 325 330 334 339 339 338 338 336 327 324 323 328 327 322 319 320 321 321 320 320 320 320 319 319 318 318 317 317 317 318 321 320 319 325 331 332 330 330 331 333 332 333
331 326 327 330 335 339 338 338 336 327 323 322 325 326 323 319 321 321 321 320 320 320 319 319 318 318 318 318 318 319 329 329 327 327 327 329 331 332 332 332 332 332 331
333 330 328 328 330 334 338 337 336 330 324 321 321 323 321 319 320 320 320 320 320 319 319 319 318 318 320 325 325 326 331 331 332 332 332 333 333 333 334 334 334 333 332
339 335 332 328 328 330 336 336 335 329 326 322 320 320 320 319 320 320 320 320 320 319 319 319 318 323 331 332 333 333 334 333 333 334 334 334 334 334 334 336 336 336 335
338 338 337 333 329 328 332 336 335 331 326 324 321 320 319 320 320 320 320 320 320 319 319 319 319 330 335 335 336 336 334 334 332 330 330 332 334 335 335 336 337 338 338
330 336 340 339 337 330 327 331 334 333 329 327 324 321 320 320 321 321 320 320 320 320 319 319 321 325 333 335 335 334 333 331 330 327 328 332 334 334 336 337 338 339 339
329 334 339 342 343 340 331 326 331 335 335 331 329 327 322 321 321 321 321 321 320 320 320 320 322 328 330 331 332 331 330 328 328 326 330 332 334 336 337 337 337 337 338
332 330 329 333 337 343 341 330 328 332 334 332 330 329 328 325 322 321 321 321 321 321 321 320 322 325 328 329 331 331 329 327 327 325 330 332 330 332 334 335 335 337 338
332 328 327 328 333 341 345 337 330 331 332 332 332 328 328 330 328 323 322 322 322 322 321 321 321 321 324 326 331 332 332 328 325 325 327 331 331 331 333 335 335 336 335
330 330 327 327 330 338 343 341 333 331 332 332 335 332 327 329 334 328 325 324 325 323 323 322 322 321 323 326 334 333 331 327 326 325 328 331 331 331 331 334 333 333 335
321 327 329 326 325 328 333 337 338 335 334 331 330 330 329 332 331 332 331 328 328 326 323 323 323 321 329 336 333 333 330 329 330 328 331 332 332 331 332 333 332 332 335
317 319 324 325 328 327 326 329 336 338 339 339 337 333 331 332 331 324 331 331 332 331 324 325 324 324 328 337 335 333 332 330 332 331 331 332 333 334 330 331 332 332 334
316 318 321 323 323 325 327 330 337 339 342 343 343 338 330 329 331 330 328 328 331 330 329 326 324 326 335 340 333 333 335 334 332 334 333 333 331 332 330 329 332 331 332
316 318 317 318 321 323 327 328 332 330 334 335 342 338 331 329 328 329 331 334 332 337 333 329 325 332 339 341 336 335 334 332 332 334 331 330 331 331 331 331 330 330 331
315 315 319 318 319 320 323 326 333 331 337 335 341 338 335 335 336 337 335 339 339 337 337 338 336 339 341 339 337 334 335 334 332 334 335 332 330 332 332 331 331 330 331
315 315 315 320 320 320 322 331 334 331 335 341 341 340 340 339 338 338 338 339 339 339 342 339 339 340 337 335 332 331 330 335 334 332 333 332 335 335 335 333 331 331 331